Location: Churchill Northern Studies Centre
(58.7378°N, 93.8201°W)
Time: 21:15:27
(UTC-05:00)

Envisat - Pass Details

Date: 15 October 2017
Orbit: 764 x 766 km, 98.2° (Epoch: 22 October)

Event Time Altitude Azimuth Distance (km) Brightness Sun altitude
Exits shadow 22:03:28 14° 225° (SW) 2,026 5.2 -29.9°
Maximum altitude 22:06:36 24° 271° (W) 1,545 5.0 -30.3°
Drops below altitude 10° 22:10:44 10° 325° (NW) 2,316 6.3 -30.7°
Sets 22:13:29 0° 339° (NNW) 3,247 7.1 -31.0°
